If you wish to contribute or participate in the discussions about articles you are invited to join SKYbrary as a registered user

 Actions

Arad International Airport

From SKYbrary Wiki

LRAR
Airport
ICAO: LRAR – IATA: ARW
Summary
Name Arad International Airport
Region
Territory Romania RO.gif
Location , Arad
Serving Arad
Elevation 107.29 m
352 ft
352 ft107.29 m
Type medium airport
Coordinates 46° 10' 35.58" N, 21° 15' 43.28" E
Runways
Designator Length Width Surface ROPS
9/27 2000 m6,561.68 ft
45 m147.638 ft
CON /


METAR
Observation LRAR 230430Z AUTO 02012KT 9999 NCD M05/M10 Q1036
Station Arad
Date/Time 23 February 2019 04:30:00
Wind direction 20°
Wind speed 12 kts
Lowest cloud amount no clouds detected
Temperature
Dew point
Humidity 67%
QNH 1036 hPa
Weather condition n/a